Tracking 25710 objects as of 5-Jul-2022
HD Live streaming from Space Station
objects crossing your sky now

FENGYUN 1C DEB

Track FENGYUN 1C DEB now!
10-day predictions


NORAD ID: 32173
Int'l Code: 1999-025CTT
Perigee: 759.3 km
Apogee: 864.3 km
Inclination: 99.6 °
Period: 101.0 minutes
Semi major axis: 7182 km
RCS: 0.009 m2 (small)
Launch date: May 10, 1999
Source: People's Republic of China (PRC)
Launch site: Taiyaun Space Center, China (TSC)

Note: This is SATELLITE DEBRIS
aabbcc
Your satellite tracking list
Your tracking list is empty




NASA's NSSDC Master Catalog

Two Line Element Set (TLE):
1 32173U 99025CTT 22177.20201399  .00003737  00000-0  15388-2 0  9993
2 32173  99.6013 328.3205 0073038 165.7066 194.6200 14.26136938773553
Source of the keplerian elements: AFSPC